Total_Precipitation_Accumulation
1.05 1.09 1.17 1.26 1.43 1.49 1.45 1.47 1.46 1.45 1.52 1.56 1.59 1.67 1.63 1.59 1.64 1.73 1.63 1.76 1.82 1.92 1.91 1.87 1.88 2.05 2.07 1.92 1.97 2.02 2.20 2.39 2.29 2.15 2.29 2.29 2.16 1.97 1.96 1.95 1.87 1.79 1.57
1.05 1.12 1.23 1.28 1.36 1.43 1.38 1.45 1.58 1.59 1.64 1.63 1.67 1.77 1.70 1.72 1.79 1.69 1.66 1.73 1.80 1.83 1.96 2.12 2.09 2.13 2.06 1.97 2.06 2.09 2.22 2.47 2.46 2.32 2.28 2.29 2.20 2.12 2.00 1.82 1.61 1.56 1.55
1.36 1.31 1.27 1.23 1.28 1.40 1.44 1.48 1.57 1.68 1.74 1.72 1.66 1.68 1.76 1.89 1.93 1.75 1.68 1.65 1.59 1.57 1.73 1.97 2.22 2.50 2.34 2.20 2.14 2.11 2.17 2.28 2.47 2.33 2.23 2.40 2.34 2.23 2.06 1.79 1.60 1.54 1.35
1.25 1.21 1.25 1.27 1.38 1.52 1.56 1.58 1.62 1.62 1.66 1.73 1.76 1.75 1.75 1.77 1.76 1.76 1.79 1.75 1.67 1.55 1.58 1.68 1.79 2.04 2.24 2.39 2.21 2.05 2.10 2.23 2.38 2.38 2.44 2.68 2.74 2.59 2.28 1.96 1.81 1.68 1.51
1.44 1.54 1.61 1.58 1.60 1.71 1.78 1.74 1.78 1.77 1.73 1.89 1.95 1.93 1.91 1.86 1.71 1.83 1.95 1.82 1.80 1.68 1.64 1.61 1.50 1.63 1.81 1.99 1.96 2.16 2.23 2.21 2.32 2.41 2.62 3.03 3.04 2.79 2.32 2.06 1.96 1.91 1.71
1.74 1.97 2.06 2.05 2.06 2.08 2.11 2.11 2.14 2.10 2.21 2.25 2.17 2.13 2.07 1.84 1.95 1.96 1.94 1.92 1.97 1.90 1.82 1.75 1.61 1.52 1.55 1.65 1.72 1.87 2.07 2.12 2.19 2.33 2.50 2.78 2.89 2.77 2.50 2.24 2.02 1.89 1.73
1.72 1.90 1.99 2.06 2.13 2.24 2.29 2.34 2.36 2.39 2.40 2.41 2.45 2.37 2.26 2.28 2.25 1.94 1.88 1.86 1.92 1.93 2.01 2.02 1.70 1.44 1.58 1.55 1.64 1.67 1.64 1.74 1.88 2.04 2.22 2.38 2.69 2.81 2.72 2.34 2.16 1.99 1.72
1.91 2.10 2.21 2.18 2.19 2.25 2.26 2.20 2.22 2.34 2.37 2.32 2.24 2.13 2.08 2.06 2.05 1.79 1.69 1.58 1.68 1.73 1.73 1.74 1.72 1.58 1.51 1.53 1.53 1.44 1.35 1.36 1.45 1.51 1.61 1.88 2.23 2.65 2.86 2.62 2.46 2.25 1.96
2.04 2.22 2.35 2.45 2.52 2.43 2.31 2.32 2.35 2.36 2.20 2.08 1.98 1.96 1.94 1.95 1.95 1.76 1.65 1.50 1.50 1.50 1.50 1.52 1.57 1.49 1.51 1.43 1.33 1.31 1.27 1.21 1.22 1.26 1.26 1.42 1.72 2.07 2.47 2.62 2.34 2.01 1.81
2.02 2.10 2.26 2.36 2.54 2.66 2.59 2.58 2.52 2.41 2.26 2.17 2.09 2.08 2.06 2.08 2.17 1.93 1.79 1.65 1.66 1.65 1.71 1.68 1.64 1.51 1.47 1.33 1.21 1.21 1.14 1.07 1.13 1.11 1.05 1.07 1.19 1.48 1.91 2.08 2.16 1.94 1.70
1.89 1.88 2.03 2.25 2.42 2.55 2.68 2.69 2.69 2.59 2.45 2.25 2.10 2.06 2.04 2.10 2.21 2.05 1.88 1.67 1.69 1.81 1.86 1.91 1.85 1.72 1.40 1.24 1.10 1.04 1.02 1.10 1.17 1.14 1.07 1.09 1.25 1.42 1.60 1.83 2.02 2.01 1.77
1.86 1.94 2.06 2.25 2.35 2.37 2.42 2.48 2.58 2.55 2.50 2.40 2.16 1.95 1.89 1.85 1.83 1.83 1.66 1.54 1.56 1.64 1.76 1.90 1.91 1.78 1.52 1.34 1.18 1.07 1.06 1.04 1.05 1.11 1.07 1.04 1.08 1.20 1.39 1.64 1.84 1.87 1.74
2.03 2.08 2.14 2.24 2.32 2.37 2.35 2.34 2.33 2.27 2.16 2.09 1.97 1.89 1.87 1.85 1.78 1.64 1.42 1.32 1.33 1.37 1.50 1.80 1.91 1.78 1.60 1.36 1.23 1.15 1.02 0.90 0.92 0.92 0.84 0.81 0.85 0.98 1.18 1.50 1.84 2.00 1.92
2.02 1.94 1.90 1.91 1.96 2.03 2.08 2.10 2.10 2.03 1.97 1.90 1.83 1.82 1.77 1.74 1.64 1.57 1.47 1.31 1.25 1.24 1.26 1.43 1.52 1.49 1.34 1.23 1.13 1.00 0.89 0.86 0.84 0.82 0.81 0.85 0.95 1.03 1.15 1.30 1.65 1.93 1.98
2.06 2.01 1.99 1.96 1.92 1.94 2.01 2.08 1.95 1.88 1.89 1.79 1.69 1.76 1.77 1.64 1.60 1.56 1.46 1.37 1.29 1.31 1.26 1.28 1.37 1.45 1.44 1.38 1.35 1.24 1.13 1.06 0.97 0.93 0.99 1.01 1.07 1.12 1.16 1.28 1.53 1.75 1.74
2.08 1.98 1.99 2.04 2.06 2.05 2.04 2.09 2.14 1.95 1.88 1.75 1.68 1.63 1.60 1.51 1.43 1.29 1.23 1.19 1.11 1.07 0.99 1.04 1.23 1.40 1.53 1.55 1.57 1.50 1.38 1.27 1.19 1.18 1.20 1.18 1.18 1.23 1.25 1.29 1.44 1.62 1.63
2.09 2.07 2.08 2.08 2.11 2.10 1.99 1.91 1.94 1.86 1.70 1.58 1.53 1.43 1.36 1.28 1.14 1.05 1.03 1.03 0.98 0.90 0.83 0.96 1.11 1.26 1.44 1.59 1.61 1.56 1.48 1.46 1.49 1.46 1.44 1.40 1.34 1.34 1.37 1.35 1.38 1.50 1.55
2.07 2.13 2.15 2.13 2.10 2.05 1.94 1.86 1.79 1.77 1.66 1.49 1.40 1.30 1.23 1.16 1.15 1.14 1.10 1.03 0.98 0.94 0.90 1.07 1.21 1.34 1.48 1.63 1.67 1.63 1.62 1.61 1.61 1.57 1.58 1.57 1.52 1.48 1.46 1.43 1.39 1.40 1.49
1.86 1.80 1.77 1.80 1.80 1.75 1.67 1.59 1.53 1.47 1.47 1.47 1.33 1.15 1.15 1.10 1.18 1.27 1.17 1.05 1.08 1.12 1.15 1.22 1.27 1.34 1.49 1.64 1.76 1.81 1.83 1.77 1.70 1.69 1.67 1.67 1.68 1.62 1.51 1.49 1.54 1.55 1.51
1.43 1.51 1.44 1.38 1.38 1.39 1.37 1.34 1.28 1.27 1.31 1.39 1.34 1.13 1.05 1.05 1.16 1.29 1.15 1.12 1.15 1.14 1.16 1.22 1.25 1.27 1.41 1.54 1.66 1.75 1.81 1.78 1.74 1.74 1.72 1.69 1.68 1.68 1.59 1.58 1.67 1.67 1.52
1.12 1.07 1.09 1.03 1.06 1.16 1.21 1.19 1.16 1.19 1.23 1.29 1.21 1.05 0.97 0.96 1.17 1.26 1.17 1.12 1.08 1.04 1.07 1.09 1.12 1.19 1.31 1.46 1.56 1.66 1.74 1.73 1.66 1.66 1.73 1.74 1.67 1.67 1.64 1.63 1.65 1.71 1.67
0.83 0.81 0.78 0.76 0.85 0.91 0.93 1.00 1.08 1.13 1.16 1.17 1.07 0.93 0.92 0.96 1.14 1.18 1.10 1.07 1.05 1.03 1.03 1.05 1.05 1.11 1.22 1.35 1.40 1.49 1.62 1.63 1.58 1.57 1.65 1.74 1.68 1.62 1.63 1.63 1.62 1.67 1.71
0.73 0.76 0.75 0.74 0.81 0.83 0.84 0.92 1.06 1.14 1.14 1.12 1.04 0.98 0.95 0.98 1.05 1.09 1.06 1.01 0.99 1.01 1.04 1.07 1.10 1.14 1.21 1.31 1.32 1.37 1.51 1.51 1.50 1.52 1.60 1.64 1.62 1.57 1.58 1.57 1.55 1.62 1.66
0.72 0.76 0.79 0.75 0.73 0.76 0.83 0.88 0.93 0.96 0.99 1.01 0.99 0.96 0.93 0.93 0.96 0.98 0.98 0.97 0.98 0.99 1.02 1.10 1.15 1.20 1.26 1.27 1.22 1.20 1.29 1.31 1.27 1.29 1.37 1.48 1.51 1.51 1.52 1.51 1.47 1.49 1.55
0.68 0.74 0.79 0.84 0.83 0.83 0.85 0.86 0.87 0.85 0.85 0.86 0.90 0.95 0.97 0.95 0.96 0.99 1.02 1.03 1.02 1.01 0.98 1.01 1.08 1.15 1.15 1.06 1.02 1.03 1.12 1.08 1.02 1.03 1.16 1.31 1.35 1.37 1.40 1.39 1.40 1.45 1.53
0.73 0.77 0.84 0.91 0.92 0.91 0.93 0.94 0.93 0.91 0.91 0.87 0.91 0.95 1.02 1.06 1.06 1.08 1.08 1.06 1.04 1.04 1.01 1.04 1.07 1.03 1.04 1.01 0.94 0.94 0.92 0.84 0.84 0.90 0.95 1.05 1.16 1.20 1.25 1.29 1.27 1.33 1.41